Погода в Равенне

Италия     44˚25′12″N   12˚11′36″E
темп.,
°C
ветер,
м/с
пор.,
м/с
влажн.,
%
обл.,
%
осадки,
мм/ч
давл.,
гПа
погр.,
м
17 января, вс
вс1701:00+3˚ююз237269 0.0 1019137
04:00+3˚ююз3368100 0.0 1017147
07:00+3˚з2265100 0.0 1016122
10:00+4˚ссз2264100 0.0 1015219
13:00+4˚ссз2278100 0.0 1014495
16:00+4˚сз2287100 0.1 1015295
19:00+4˚сз4485100 0.2 1017337
22:00+4˚сз568192 0.0 1019342
18 января, пн
пн1801:00+4˚сз578084 0.0 1020313
04:00+3˚сз568092 0.1 1021346
07:00+3˚зсз457795 0.1 1023245
10:00+4˚сз447481 0.0 1024255
13:00+5˚сз226867 0.0 1024404
16:00+6˚ссз22690 0.0 1024423
19:00+5˚ссз12754 0.0 1025360
22:00+4˚з227838 0.0 1026184
19 января, вт
вт1901:00+3˚зсз228325 0.0 1027129
04:00+3˚зсз228370 0.0 1026126
07:00+2˚зсз228436 0.0 1026120
10:00+4˚з227762 0.0 1027175
13:00+6˚ссз116745 0.0 1026330
16:00+6˚юв126911 0.0 1024170
19:00+6˚юв127121 0.0 1025178
22:00+6˚з1173100 0.0 1024135
20 января, ср
ср2001:00+6˚зсз117697 0.0 1024119
04:00+5˚ссз228151 0.0 1022129
07:00+6˚ссв228376 0.1 1022149
10:00+7˚с2283100 0.0 1022221
13:00+8˚всв227895 0.0 1021383
16:00+8˚ссв448392 0.0 1019232
19:00+7˚ссв228960 0.0 1019136
22:00+7˚ссв229041 0.0 1018123
21 января, чт
чт2101:00+7˚с229358 0.0 1017106
04:00+7˚с239399 0.0 1015132
07:00+8˚ссв2392100 0.0 1014147
10:00+8˚зюз2390100 0.0 1013171
13:00+9˚ссз3386100 0.0 1013185
16:00+8˚с2286100 0.0 1011129
19:00+8˚ссв239084 0.0 101287
22:00+8˚св229142 0.0 101067